DEIMOS-2

Last updated on Thu Nov 21 2024 00:02:27 GMT+0000 (Coordinated Universal Time)

1 40013U 14033D 24325.57762323 .00004037 00000+0 41945-3 0 9999 2 40013 97.6572 207.4892 0002515 76.8420 283.3079 14.90442936552172
UTC large
Height (km)
Speed (km/s)
/
Latitude / Longitude
Inclination (degrees)
Orbital Period (minutes)
Azimuth
Elevation
Range (km)
Doppler Factor

Next 0 passes for location: London (51.5072 / 0.1276)

Sorry there are no passes over London.